Theta_e
305 298 295 299 302 300 297 292 290 290 298 294 294 295 297 300 299 299 301 302 303 304 308 310 310 307 308 320 321 323 323 324 324 321 321 323 323 325 325 327 327 326 325 323
299 293 297 301 302 300 298 293 294 295 297 296 295 295 299 299 300 302 302 302 304 305 306 308 308 306 305 311 319 321 323 324 324 325 324 324 323 324 326 326 327 327 326 324
295 295 299 298 295 294 295 293 291 294 294 296 292 293 295 299 298 299 300 302 303 304 305 306 306 306 305 306 311 318 322 323 324 325 323 321 320 318 320 324 325 326 325 324
296 299 297 293 293 294 290 295 294 292 290 286 292 283 291 291 294 295 297 297 299 301 302 304 305 304 304 304 307 313 319 322 324 324 323 321 321 319 322 323 324 325 325 324
292 294 295 294 294 297 291 296 293 292 289 287 289 287 286 290 290 295 297 296 298 297 297 298 301 302 301 301 303 305 314 318 321 321 323 322 320 322 322 321 321 322 324 325
291 295 296 294 296 297 296 294 294 292 292 284 288 287 287 289 291 293 293 294 294 294 295 295 297 298 297 298 299 304 307 307 314 318 320 320 319 320 320 319 319 321 321 323
290 292 294 296 292 294 294 292 283 282 282 280 284 286 288 291 292 292 293 294 292 293 293 294 294 295 297 297 298 300 299 299 300 302 306 314 319 322 321 321 321 322 323 321
283 277 292 295 293 290 291 291 283 277 276 279 283 282 287 293 293 295 295 294 294 293 293 292 293 294 295 296 297 297 297 297 299 299 300 301 304 308 312 316 320 323 324 325
282 281 292 293 295 295 291 288 292 284 278 277 281 284 290 292 293 292 292 293 292 292 291 291 292 293 294 294 295 294 294 295 296 297 298 299 300 302 303 306 309 311 315 320
286 277 288 291 295 296 293 295 287 287 278 273 279 279 283 287 289 290 290 291 290 290 289 290 290 291 292 293 293 293 292 292 294 295 296 297 297 299 300 301 301 302 305 309
288 284 286 293 291 289 291 289 289 288 286 278 277 279 287 286 287 288 291 290 287 287 288 288 288 289 289 291 291 290 289 289 291 293 294 294 294 295 296 296 297 298 299 300
291 284 278 285 292 294 293 291 290 283 282 284 283 282 291 289 289 291 288 288 288 288 287 287 287 286 286 287 289 287 287 287 288 290 291 292 292 292 292 292 293 294 294 296
291 286 275 282 288 292 289 292 292 288 284 282 280 282 294 293 290 290 288 288 288 288 287 287 287 285 284 285 287 285 284 284 286 288 288 289 288 288 289 290 289 289 290 291
295 284 283 278 279 285 285 287 290 289 283 283 285 286 290 290 291 291 292 290 290 288 286 285 284 283 282 283 285 283 282 283 284 285 285 286 284 286 287 285 284 285 286 288
292 283 282 282 284 285 284 285 288 287 288 284 285 286 290 292 292 295 295 292 289 288 285 284 283 282 281 282 284 280 280 282 282 282 283 282 283 284 281 281 281 282 283 284
293 284 284 279 285 285 283 285 287 288 289 288 287 286 292 293 294 293 293 289 285 284 282 281 281 280 280 281 279 278 279 279 280 280 280 279 280 278 278 278 278 279 279 281
290 286 283 279 282 283 281 285 285 287 287 288 284 288 290 290 293 291 287 284 282 281 280 278 278 278 279 277 277 276 277 278 278 279 276 276 275 275 275 276 276 276 277 279
289 287 285 278 282 275 283 283 289 288 289 290 287 284 289 289 282 282 283 280 278 278 277 277 276 275 276 275 275 275 276 275 276 274 273 274 273 273 273 274 274 274 276 277
292 288 279 278 277 278 281 281 285 285 285 286 289 282 279 278 277 275 278 277 275 275 275 276 275 274 274 273 273 273 273 273 272 271 271 272 271 271 271 271 272 273 273 273
292 291 285 273 273 274 280 282 284 288 281 281 283 281 277 281 280 275 275 275 274 274 274 273 273 272 271 271 271 272 271 271 270 270 270 270 270 270 270 271 271 271 272 274
284 285 282 275 270 273 280 281 281 278 279 280 280 280 279 278 275 274 273 272 273 273 272 271 270 269 269 270 270 270 270 269 269 270 269 269 269 269 270 270 270 270 270 271
283 282 281 271 275 275 278 279 280 279 275 276 275 274 275 273 272 271 271 271 271 269 270 270 268 268 268 269 269 268 267 268 268 267 267 267 268 269 269 268 269 269 270 269
281 282 277 281 281 274 272 273 275 275 274 273 273 273 273 271 270 269 268 268 268 268 268 268 267 267 267 267 267 266 266 266 266 264 265 266 267 268 268 268 268 269 270 270
281 281 280 279 274 272 271 270 271 272 272 271 271 271 271 268 268 267 268 267 267 267 266 266 266 265 265 265 265 264 265 264 262 263 264 266 266 266 268 269 269 269 269 269
280 281 276 272 269 270 270 270 270 269 269 268 268 268 268 268 266 266 266 266 265 265 265 265 264 264 263 263 263 263 263 262 262 263 264 264 265 266 266 267 268 269 270 272
275 277 279 279 274 275 272 270 270 268 267 268 267 266 267 267 266 266 265 264 264 263 263 262 262 262 261 260 261 260 260 261 260 261 262 263 264 264 265 265 265 270 271 273
Wind_Speed
6 6 13 13 10 7 3 2 3 1 2 4 6 11 11 12 7 10 10 11 14 16 18 17 14 13 9 9 11 14 11 13 8 6 8 9 10 8 7 9 11 12 11 12
5 19 8 4 7 7 5 7 6 3 3 3 7 21 13 6 11 13 15 17 18 18 15 17 14 9 9 11 11 11 13 12 11 10 8 7 6 9 8 7 10 12 12 12
12 4 13 10 7 8 6 11 4 4 0 4 5 25 13 18 9 8 9 12 17 18 17 17 12 10 8 9 10 10 12 12 10 12 4 1 1 1 3 8 8 9 11 11
11 11 7 4 11 8 13 7 6 4 2 9 5 21 12 5 12 8 12 10 13 16 12 16 13 9 8 7 6 6 7 9 11 11 9 11 10 10 9 7 5 7 10 12
7 10 14 13 9 10 6 8 9 6 4 4 14 8 5 6 11 20 12 11 11 10 11 13 8 5 5 6 5 4 3 3 5 5 9 7 7 6 3 3 5 6 7 11
4 1 8 7 5 13 6 5 2 3 6 10 13 10 26 10 12 10 3 5 6 8 8 8 7 7 8 7 10 11 11 9 7 1 4 6 7 8 5 5 4 5 4 5
4 5 3 2 6 2 4 6 3 5 7 10 4 11 25 3 7 7 9 6 3 7 8 8 10 10 11 12 12 12 13 13 11 11 9 7 5 5 5 5 5 6 6 4
14 5 11 6 7 7 11 13 7 5 4 5 4 11 14 6 3 5 6 9 8 8 7 9 10 10 12 13 14 14 14 14 13 12 12 10 11 6 5 5 4 5 6 6
9 7 2 1 5 11 6 13 15 7 2 1 5 9 12 3 10 4 3 7 9 9 10 11 11 12 13 13 15 14 15 15 15 13 10 10 10 10 8 8 8 7 8 7
6 1 1 3 4 4 4 3 5 6 6 5 5 5 8 12 12 3 8 11 11 10 12 12 13 13 12 12 12 14 15 14 13 13 12 10 11 11 11 10 11 11 10 11
5 5 1 5 10 12 6 8 3 2 3 5 12 7 5 10 12 5 12 13 10 11 11 11 11 12 12 12 14 14 15 15 15 14 12 12 11 11 10 10 11 12 12 12
6 5 5 10 3 2 7 12 12 8 5 4 1 2 1 2 9 16 14 12 9 10 9 9 10 11 13 13 13 15 15 15 13 11 11 12 12 12 13 13 13 13 13 13
13 7 4 2 2 2 6 11 11 3 0 10 4 6 4 5 13 12 16 9 8 8 8 9 10 12 12 12 12 13 14 13 13 13 13 12 14 13 13 13 14 14 14 13
17 4 14 15 6 7 9 11 11 10 4 7 10 5 6 6 12 10 9 10 10 9 8 8 10 11 10 11 11 14 14 13 13 12 12 12 14 14 13 14 14 14 14 14
12 10 5 1 2 4 6 10 17 17 26 12 10 13 14 16 13 11 9 9 10 9 10 10 9 9 9 10 8 10 10 11 12 11 11 15 14 13 15 14 14 14 13 13
6 4 7 5 6 5 4 6 19 24 18 20 10 13 5 13 9 7 10 11 11 9 9 9 10 12 11 10 12 12 12 14 14 13 13 13 13 15 14 15 16 16 15 15
11 6 4 10 4 4 7 26 14 14 8 18 16 15 8 8 11 9 12 12 12 8 7 7 7 7 9 10 12 13 12 11 12 12 14 14 14 15 15 15 16 16 16 16
13 12 5 3 5 10 10 2 14 21 17 17 4 2 5 12 12 10 9 12 10 8 6 5 6 8 10 10 11 12 11 11 11 12 12 13 13 15 15 16 16 16 16 17
17 10 3 6 10 7 5 6 8 11 14 10 12 7 12 15 11 5 8 7 8 7 6 6 6 6 8 10 11 11 10 10 11 13 14 14 13 13 14 15 15 15 15 15
15 17 12 3 7 13 7 6 4 7 13 11 14 17 19 14 9 6 8 8 7 7 6 5 6 6 7 9 10 10 10 11 12 13 13 13 14 13 12 13 14 14 14 16
11 12 15 6 6 10 5 6 3 10 6 9 7 14 16 7 1 14 11 8 7 6 5 6 6 6 7 8 9 7 8 9 10 11 11 11 11 11 10 11 11 12 13 14
14 11 9 5 6 16 6 4 12 2 4 6 6 4 10 14 12 11 9 8 6 5 5 5 4 5 6 7 7 7 7 9 9 9 9 9 9 9 10 11 11 12 12 13
9 9 9 11 9 2 2 3 2 2 5 4 7 7 12 13 7 8 7 6 5 5 4 5 4 4 4 6 7 8 10 11 11 9 10 11 11 10 10 10 11 10 11 12
4 3 4 5 4 3 3 2 2 4 9 9 10 9 7 10 9 8 7 6 5 4 3 2 3 3 5 7 7 8 11 12 11 12 12 11 11 12 11 9 9 9 11 12
3 8 6 2 1 3 5 4 8 12 11 12 10 7 10 11 8 6 7 6 5 4 3 3 2 3 5 7 9 9 11 11 12 11 11 11 10 11 10 9 9 8 8 13
4 7 7 6 10 3 3 14 13 14 12 10 12 10 8 9 9 8 7 5 4 4 4 3 4 6 8 9 9 10 11 12 11 11 9 9 9 9 9 9 8 13 16 21
Wind_Direction
183 209 216 199 216 238 132 140 229 302 307 300 249 267 262 269 287 283 287 283 275 266 265 264 256 247 225 227 221 219 206 218 196 192 201 217 217 215 218 219 219 210 213 203
169 231 209 202 183 211 218 246 251 218 206 250 294 280 270 246 256 262 273 278 275 276 276 267 264 257 230 233 226 228 219 214 200 205 218 215 198 217 219 220 220 215 213 208
210 187 167 185 190 195 210 227 186 241 222 259 318 281 276 269 261 264 265 255 264 266 278 281 272 246 244 229 225 223 218 216 209 215 201 179 26 334 193 222 228 221 214 209
232 238 180 188 217 161 234 162 177 228 154 263 157 282 272 263 268 247 259 265 274 283 278 272 272 261 259 266 275 241 216 207 208 197 199 198 213 220 226 233 220 216 204 215
202 172 195 204 204 174 233 156 182 180 209 297 242 272 337 34 279 276 263 249 279 295 293 287 285 307 26 9 335 280 263 273 274 212 208 194 222 240 250 232 230 226 215 214
224 294 184 206 138 176 143 107 140 160 225 238 238 210 274 249 245 259 255 265 325 337 344 19 29 47 42 13 36 49 63 40 27 3 233 212 210 219 221 214 222 231 230 225
155 197 219 172 107 67 150 136 225 204 201 245 152 187 245 264 267 260 249 296 44 37 16 22 29 34 40 36 32 47 51 45 35 43 32 18 355 321 284 268 253 254 248 227
209 224 173 182 196 168 191 208 222 226 211 233 141 225 252 251 337 252 228 159 102 69 36 36 25 35 40 41 39 39 38 39 32 40 37 27 15 16 355 344 337 304 283 268
186 229 67 147 152 160 178 213 222 281 95 284 221 280 295 304 269 261 57 140 97 63 40 35 36 37 33 37 37 36 36 34 27 25 25 31 25 17 11 359 7 358 340 327
204 92 230 171 95 274 184 197 177 201 226 253 237 269 253 339 316 325 107 78 62 55 46 36 33 29 31 32 38 38 35 33 26 25 22 20 18 13 10 3 13 4 347 341
145 105 125 139 204 182 185 217 189 350 248 267 265 245 327 298 296 101 94 84 79 68 53 41 34 29 24 27 32 32 29 26 20 16 12 17 15 10 11 7 5 355 346 349
170 135 161 205 151 224 206 217 208 229 207 217 225 251 328 320 83 97 83 89 88 77 71 54 49 36 28 21 24 24 22 18 13 8 7 12 11 6 4 4 358 352 346 346
173 194 126 204 275 213 215 206 194 171 157 246 273 256 163 83 104 113 119 123 115 98 74 63 49 38 28 20 16 19 12 13 4 1 7 11 8 4 1 356 348 346 340 331
164 173 205 212 189 145 199 204 199 187 232 240 230 207 173 158 133 142 139 137 114 92 76 54 40 31 25 21 14 14 1 359 0 1 2 9 1 358 356 346 343 340 335 328
178 215 200 220 158 174 187 188 198 207 227 221 236 216 198 179 164 162 159 123 93 84 64 42 34 24 19 13 25 9 352 351 353 358 7 8 353 355 344 338 339 335 334 331
204 226 152 241 214 187 234 221 206 213 223 233 246 256 165 166 169 168 136 120 109 96 76 56 28 7 4 9 3 1 359 353 354 352 11 358 355 342 341 338 334 334 334 333
200 173 144 237 165 114 261 235 200 217 207 215 228 236 154 157 163 150 137 129 120 104 87 62 42 11 347 3 3 358 349 343 354 12 352 357 347 339 338 334 332 333 332 326
190 200 174 176 139 216 250 122 209 210 212 200 214 153 181 143 107 100 115 128 120 115 86 50 34 358 1 353 6 353 349 355 4 353 347 341 345 338 334 334 334 331 329 329
197 173 173 188 209 307 267 211 166 175 235 210 195 137 133 126 102 92 102 94 102 92 72 53 23 1 349 2 356 350 356 355 352 355 349 341 338 328 335 330 327 325 323 322
202 203 201 144 185 222 260 177 157 102 261 172 168 171 156 159 175 168 135 111 95 84 70 40 21 360 358 358 353 348 354 357 354 346 335 337 337 334 327 324 327 323 322 321
193 200 207 174 223 276 200 160 168 159 242 161 148 157 166 169 21 124 116 103 93 82 57 48 19 4 5 354 348 349 355 350 337 335 331 331 331 326 329 326 323 327 327 326
183 187 198 129 212 257 140 95 179 151 40 119 105 102 109 118 117 114 118 119 101 80 57 33 15 6 3 353 346 353 355 340 332 320 319 326 331 339 344 339 334 330 325 324
197 189 173 195 211 40 42 16 359 64 127 135 116 111 127 126 124 125 124 111 100 85 62 34 7 344 353 358 0 354 348 341 334 329 345 347 342 338 336 339 334 337 337 341
236 171 146 118 174 170 168 80 20 78 106 103 110 114 115 123 128 119 127 119 112 93 78 30 5 2 1 2 5 357 346 342 343 345 345 344 338 338 338 340 338 340 347 346
177 138 141 53 73 48 235 200 140 113 106 103 90 101 117 121 117 125 123 125 123 114 80 65 36 17 358 356 3 360 348 346 349 344 342 346 340 330 329 333 335 335 349 350
186 168 179 220 179 135 166 155 144 138 139 135 132 117 92 121 127 132 127 117 109 96 60 53 31 17 6 1 356 354 350 352 346 339 340 329 324 327 323 321 316 330 354 358